| time (UTC) | temp F | wind direction | speed MPH | gust MPH | rain 1hr in | rain 24hr in | rain mn in | humidity % | barometer mb |
| 20260509030013 | 82 | 0.0 | 0.0 | 0.00 | 0.00 | 0.00 | 18 | 1006.5 | |
| 20260509024515 | 83 | 0.0 | 0.0 | 0.00 | 0.00 | 0.00 | 17 | 1006.4 | |
| 20260509023018 | 85 | 0.0 | 0.0 | 0.00 | 0.00 | 0.00 | 15 | 1006.2 | |
| 20260509021511 | 87 | 0.0 | 0.0 | 0.00 | 0.00 | 0.00 | 14 | 1006.0 | |
| 20260509020012 | 88 | 0.0 | 0.0 | 0.00 | 0.00 | 0.00 | 13 | 1006.0 | |
| 20260509014510 | 89 | 0.0 | 0.0 | 0.00 | 0.00 | 0.00 | 12 | 1005.8 | |
| 20260509013016 | 90 | 0.0 | 0.0 | 0.00 | 0.00 | 0.00 | 12 | 1005.7 | |
| 20260509011511 | 91 | 0.0 | 0.0 | 0.00 | 0.00 | 0.00 | 11 | 1005.7 | |
| 20260509010013 | 91 | 0.0 | 0.0 | 0.00 | 0.00 | 0.00 | 11 | 1005.8 | |
| 20260509004507 | 92 | 0.0 | 0.0 | 0.00 | 0.00 | 0.00 | 10 | 1005.8 | |
| 20260509003008 | 92 | 0.0 | 0.0 | 0.00 | 0.00 | 0.00 | 10 | 1005.7 | |
| 20260509001507 | 93 | 0.0 | 0.0 | 0.00 | 0.00 | 0.00 | 10 | 1005.7 | |
| 20260509000010 | 93 | 0.0 | 0.0 | 0.00 | 0.00 | 0.00 | 10 | 1005.7 | |
| 20260508234505 | 93 | 0.0 | 0.0 | 0.00 | 0.00 | 0.00 | 11 | 1005.7 | |
| 20260508233004 | 94 | 0.0 | 0.0 | 0.00 | 0.00 | 0.00 | 11 | 1005.8 | |
| 20260508231503 | 94 | 0.0 | 0.0 | 0.00 | 0.00 | 0.00 | 11 | 1005.9 | |
| 20260508230001 | 94 | 0.0 | 0.0 | 0.00 | 0.00 | 0.00 | 11 | 1006.1 | |
| 20260508224600 | 95 | 0.0 | 0.0 | 0.00 | 0.00 | 0.00 | 11 | 1006.1 | |
| 20260508223058 | 94 | 0.0 | 0.0 | 0.00 | 0.00 | 0.00 | 12 | 1006.4 | |
| 20260508221559 | 94 | 0.0 | 0.0 | 0.00 | 0.00 | 0.00 | 12 | 1006.5 | |
| 20260508220053 | 94 | 0.0 | 0.0 | 0.00 | 0.00 | 0.00 | 13 | 1006.7 | |
| 20260508214606 | 94 | 0.0 | 0.0 | 0.00 | 0.00 | 0.00 | 12 | 1006.9 | |
| 20260508213059 | 93 | 0.0 | 0.0 | 0.00 | 0.00 | 0.00 | 12 | 1007.0 | |
| 20260508211545 | 93 | 0.0 | 0.0 | 0.00 | 0.00 | 0.00 | 13 | 1007.3 | |
| 20260508210046 | 93 | 0.0 | 0.0 | 0.00 | 0.00 | 0.00 | 13 | 1007.6 | |
| 20260508204542 | 93 | 0.0 | 0.0 | 0.00 | 0.00 | 0.00 | 14 | 1007.7 | |
| 20260508203049 | 93 | 0.0 | 0.0 | 0.00 | 0.00 | 0.00 | 14 | 1008.0 | |
| 20260508201548 | 93 | 0.0 | 0.0 | 0.00 | 0.00 | 0.00 | 14 | 1008.2 | |
| 20260508200040 | 92 | 0.0 | 0.0 | 0.00 | 0.00 | 0.00 | 14 | 1008.5 | |
| 20260508194534 | 91 | 0.0 | 0.0 | 0.00 | 0.00 | 0.00 | 15 | 1008.7 | |
| 20260508193029 | 91 | 0.0 | 0.0 | 0.00 | 0.00 | 0.00 | 16 | 1008.9 | |
| 20260508191530 | 88 | 0.0 | 0.0 | 0.00 | 0.00 | 0.00 | 17 | 1009.1 | |
| 20260508190028 | 88 | 0.0 | 0.0 | 0.00 | 0.00 | 0.00 | 18 | 1009.5 | |
| 20260508184521 | 87 | 0.0 | 0.0 | 0.00 | 0.00 | 0.00 | 18 | 1009.7 | |
| 20260508183017 | 85 | 0.0 | 0.0 | 0.00 | 0.00 | 0.00 | 19 | 1009.9 | |
| 20260508181538 | 84 | 0.0 | 0.0 | 0.00 | 0.00 | 0.00 | 20 | 1010.1 | |
| 20260508180014 | 84 | 0.0 | 0.0 | 0.00 | 0.00 | 0.00 | 20 | 1010.5 | |
| 20260508174516 | 84 | 0.0 | 0.0 | 0.00 | 0.00 | 0.00 | 21 | 1010.8 | |
| 20260508173007 | 81 | 0.0 | 0.0 | 0.00 | 0.00 | 0.00 | 22 | 1010.8 | |
| 20260508171505 | 82 | 0.0 | 0.0 | 0.00 | 0.00 | 0.00 | 21 | 1011.0 | |
| 20260508170001 | 80 | 0.0 | 0.0 | 0.00 | 0.00 | 0.00 | 23 | 1011.1 | |
| 20260508164613 | 79 | 0.0 | 0.0 | 0.00 | 0.00 | 0.00 | 23 | 1011.2 | |
| 20260508163056 | 78 | 0.0 | 0.0 | 0.00 | 0.00 | 0.00 | 24 | 1011.2 | |
| 20260508161554 | 78 | 0.0 | 0.0 | 0.00 | 0.00 | 0.00 | 26 | 1011.4 | |
| 20260508160050 | 77 | 0.0 | 0.0 | 0.00 | 0.00 | 0.00 | 27 | 1011.4 | |
| 20260508154554 | 75 | 0.0 | 0.0 | 0.00 | 0.00 | 0.00 | 29 | 1011.4 | |
| 20260508153044 | 73 | 0.0 | 0.0 | 0.00 | 0.00 | 0.00 | 30 | 1011.4 | |
| 20260508151542 | 73 | 0.0 | 0.0 | 0.00 | 0.00 | 0.00 | 31 | 1011.5 | |
| 20260508150037 | 72 | 0.0 | 0.0 | 0.00 | 0.00 | 0.00 | 34 | 1011.5 | |
| 20260508144533 | 69 | 0.0 | 0.0 | 0.00 | 0.00 | 0.00 | 41 | 1011.6 | |
| 20260508143033 | 67 | 0.0 | 0.0 | 0.00 | 0.00 | 0.00 | 47 | 1011.6 | |
| 20260508141542 | 64 | 0.0 | 0.0 | 0.00 | 0.00 | 0.00 | 52 | 1011.6 | |
| 20260508140022 | 62 | 0.0 | 0.0 | 0.00 | 0.00 | 0.00 | 54 | 1011.6 | |
| 20260508134520 | 60 | 0.0 | 0.0 | 0.00 | 0.00 | 0.00 | 56 | 1011.6 | |
| 20260508133020 | 58 | 0.0 | 0.0 | 0.00 | 0.00 | 0.00 | 59 | 1011.4 | |
| 20260508131514 | 55 | 0.0 | 0.0 | 0.00 | 0.00 | 0.00 | 61 | 1011.3 | |
| 20260508130011 | 54 | 0.0 | 0.0 | 0.00 | 0.00 | 0.00 | 61 | 1011.0 | |
| 20260508124509 | 54 | 0.0 | 0.0 | 0.00 | 0.00 | 0.00 | 58 | 1010.8 | |
| 20260508123007 | 53 | 0.0 | 0.0 | 0.00 | 0.00 | 0.00 | 63 | 1010.6 | |
| 20260508121504 | 54 | 0.0 | 0.0 | 0.00 | 0.00 | 0.00 | 61 | 1010.5 | |
| 20260508120002 | 55 | 0.0 | 0.0 | 0.00 | 0.00 | 0.00 | 56 | 1010.4 | |
| 20260508114600 | 55 | 0.0 | 0.0 | 0.00 | 0.00 | 0.00 | 56 | 1010.4 | |
| 20260508113101 | 55 | 0.0 | 0.0 | 0.00 | 0.00 | 0.00 | 59 | 1010.3 | |
| 20260508111601 | 55 | 0.0 | 0.0 | 0.00 | 0.00 | 0.00 | 60 | 1010.2 | |
| 20260508104554 | 56 | 0.0 | 0.0 | 0.00 | 0.00 | 0.00 | 55 | 1010.1 | |
| 20260508103120 | 56 | 0.0 | 0.0 | 0.00 | 0.00 | 0.00 | 57 | 1010.0 | |
| 20260508101604 | 57 | 0.0 | 0.0 | 0.00 | 0.00 | 0.00 | 54 | 1010.0 | |
| 20260508100050 | 57 | 0.0 | 0.0 | 0.00 | 0.00 | 0.00 | 54 | 1010.0 | |
| 20260508094604 | 56 | 0.0 | 0.0 | 0.00 | 0.00 | 0.00 | 59 | 1009.9 | |
| 20260508093048 | 56 | 0.0 | 0.0 | 0.00 | 0.00 | 0.00 | 57 | 1010.0 | |
| 20260508091543 | 58 | 0.0 | 0.0 | 0.00 | 0.00 | 0.00 | 54 | 1010.0 | |
| 20260508090041 | 59 | 0.0 | 0.0 | 0.00 | 0.00 | 0.00 | 52 | 1010.0 | |
| 20260508084637 | 60 | 0.0 | 0.0 | 0.00 | 0.00 | 0.00 | 49 | 1010.0 | |
| 20260508083036 | 60 | 0.0 | 0.0 | 0.00 | 0.00 | 0.00 | 47 | 1010.3 | |
| 20260508081531 | 61 | 0.0 | 0.0 | 0.00 | 0.00 | 0.00 | 47 | 1010.4 | |
| 20260508080026 | 61 | 0.0 | 0.0 | 0.00 | 0.00 | 0.00 | 46 | 1010.5 | |
| 20260508074523 | 63 | 0.0 | 0.0 | 0.00 | 0.00 | 0.00 | 42 | 1010.6 | |
| 20260508073028 | 63 | 0.0 | 0.0 | 0.00 | 0.00 | 0.00 | 42 | 1010.7 | |
| 20260508071527 | 63 | 0.0 | 0.0 | 0.00 | 0.00 | 0.00 | 41 | 1010.8 | |
| 20260508070017 | 64 | 0.0 | 0.0 | 0.00 | 0.00 | 0.00 | 39 | 1010.8 | |
| 20260508064530 | 66 | 0.0 | 0.0 | 0.00 | 0.00 | 0.00 | 37 | 1010.8 | |
| 20260508063020 | 67 | 0.0 | 0.0 | 0.00 | 0.00 | 0.00 | 34 | 1011.1 | |
| 20260508061518 | 68 | 0.0 | 0.0 | 0.00 | 0.00 | 0.00 | 33 | 1010.9 | |
| 20260508060017 | 67 | 0.0 | 0.0 | 0.00 | 0.00 | 0.00 | 34 | 1010.9 | |
| 20260508054516 | 68 | 0.0 | 0.0 | 0.00 | 0.00 | 0.00 | 34 | 1010.8 | |
| 20260508053020 | 70 | 0.0 | 0.0 | 0.00 | 0.00 | 0.00 | 31 | 1010.8 | |
| 20260508051514 | 71 | 0.0 | 0.0 | 0.00 | 0.00 | 0.00 | 29 | 1010.8 | |
| 20260508050018 | 69 | 0.0 | 0.0 | 0.00 | 0.00 | 0.00 | 32 | 1010.7 | |
| 20260508044510 | 71 | 0.0 | 0.0 | 0.00 | 0.00 | 0.00 | 28 | 1010.5 | |
| 20260508043009 | 71 | 0.0 | 0.0 | 0.00 | 0.00 | 0.00 | 28 | 1010.5 | |
| 20260508041509 | 72 | 0.0 | 0.0 | 0.00 | 0.00 | 0.00 | 27 | 1010.3 | |
| 20260508040017 | 73 | 0.0 | 0.0 | 0.00 | 0.00 | 0.00 | 27 | 1010.2 | |
| 20260508034508 | 74 | 0.0 | 0.0 | 0.00 | 0.00 | 0.00 | 25 | 1009.7 | |
| 20260508033007 | 75 | 0.0 | 0.0 | 0.00 | 0.00 | 0.00 | 25 | 1009.6 | |
| 20260508031506 | 76 | 0.0 | 0.0 | 0.00 | 0.00 | 0.00 | 23 | 1009.3 |